,,,PA_Meas_PMT16A,,PR_Meas_QMR101_102,,RH_Meas_QMH101,,SR_Meas_QMS101,,TA_Meas_QMH101,,GenWind,,GenWind,
date,time,status,PA,status,PR,status,RH,status,SR,status,TA,status,DirAvg,status,SpdAvg,
2008-08-29, 00:00:05,VALID,1009.85,VALID,0,VALID,94.5822,VALID,0,VALID,23.8304,VALID,12,VALID,0.424219,
2008-08-29, 00:01:05,VALID,1009.88,VALID,0,VALID,94.6356,VALID,0,VALID,23.8694,VALID,9,VALID,0.480469,
2008-08-29, 00:02:05,VALID,1009.88,VALID,0,VALID,94.6203,VALID,0,VALID,23.8304,VALID,8,VALID,0.655078,
2008-08-29, 00:03:05,VALID,1009.91,VALID,0,VALID,94.6127,VALID,0,VALID,23.8109,VALID,8,VALID,0.611328,
2008-08-29, 00:04:05,VALID,1009.91,VALID,0,VALID,94.6127,VALID,0,VALID,23.8109,VALID,8,VALID,0.301562,
2008-08-29, 00:05:05,VALID,1009.94,VALID,0,VALID,94.6432,VALID,0,VALID,23.7914,VALID,8,VALID,0.283203,
2008-08-29, 00:06:05,VALID,1009.96,VALID,0,VALID,94.6814,VALID,0,VALID,23.8109,VALID,36,VALID,0.389062,
2008-08-29, 00:07:05,VALID,1009.95,VALID,0,VALID,94.7347,VALID,0,VALID,23.8109,VALID,101,VALID,0.912109,
2008-08-29, 00:08:05,VALID,1009.92,VALID,0,VALID,94.7881,VALID,0,VALID,23.8304,VALID,79,VALID,0.70625,
2008-08-29, 00:09:05,VALID,1009.88,VALID,0,VALID,94.8415,VALID,0,VALID,23.8499,VALID,60,VALID,0.692969,
2008-08-29, 00:10:05,VALID,1009.84,VALID,0,VALID,94.8568,VALID,0,VALID,23.8499,VALID,18,VALID,0.576563,
2008-08-29, 00:11:05,VALID,1009.79,VALID,0,VALID,94.8415,VALID,0,VALID,23.8499,VALID,357,VALID,0.727734,
2008-08-29, 00:12:05,VALID,1009.76,VALID,0,VALID,94.8262,VALID,0,VALID,23.8304,VALID,349,VALID,0.685547,
2008-08-29, 00:13:05,VALID,1009.74,VALID,0,VALID,94.8262,VALID,0,VALID,23.8304,VALID,354,VALID,0.221484,
2008-08-29, 00:14:05,VALID,1009.74,VALID,0,VALID,94.8034,VALID,0,VALID,23.8304,VALID,354,VALID,0.373828,
2008-08-29, 00:15:05,VALID,1009.76,VALID,0,VALID,94.7881,VALID,0,VALID,23.8109,VALID,354,VALID,0.270703,
2008-08-29, 00:16:05,VALID,1009.76,VALID,0,VALID,94.7805,VALID,0,VALID,23.7896,VALID,356,VALID,0.117188,
2008-08-29, 00:17:05,VALID,1009.76,VALID,0,VALID,94.7805,VALID,0.105969,VALID,23.7896,VALID,18,VALID,0.496094,
2008-08-29, 00:18:05,VALID,1009.73,VALID,0,VALID,94.7881,VALID,0,VALID,23.7914,VALID,25,VALID,0.374219,
2008-08-29, 00:19:05,VALID,1009.69,VALID,0,VALID,94.7652,VALID,0.105969,VALID,23.7701,VALID,55,VALID,0.307031,
2008-08-29, 00:20:05,VALID,1009.69,VALID,0,VALID,94.7729,VALID,0.105969,VALID,23.7489,VALID,94,VALID,0.558203,
2008-08-29, 00:21:05,VALID,1009.63,VALID,0,VALID,94.7881,VALID,0.105969,VALID,23.7507,VALID,86,VALID,0.539844,
2008-08-29, 00:22:05,VALID,1009.62,VALID,0,VALID,94.7957,VALID,0.105969,VALID,23.7507,VALID,75,VALID,0.696875,
2008-08-29, 00:23:05,VALID,1009.61,VALID,0,VALID,94.811,VALID,0.105969,VALID,23.7312,VALID,81,VALID,0.273438,
2008-08-29, 00:24:05,VALID,1009.59,VALID,0,VALID,94.8034,VALID,0.105969,VALID,23.7312,VALID,89,VALID,0.546484,
2008-08-29, 00:25:05,VALID,1009.59,VALID,0,VALID,94.7957,VALID,0.105969,VALID,23.7312,VALID,96,VALID,0.674609,
2008-08-29, 00:26:05,VALID,1009.63,VALID,0,VALID,94.811,VALID,0.105969,VALID,23.7701,VALID,79,VALID,0.541406,
2008-08-29, 00:27:05,VALID,1009.65,VALID,0,VALID,94.7957,VALID,0.105969,VALID,23.7507,VALID,78,VALID,0.867969,
2008-08-29, 00:28:05,VALID,1009.65,VALID,0,VALID,94.7881,VALID,0.105969,VALID,23.7312,VALID,77,VALID,1.11211,
2008-08-29, 00:29:05,VALID,1009.68,VALID,0,VALID,94.7805,VALID,0.105969,VALID,23.7507,VALID,76,VALID,1.1293,
2008-08-29, 00:30:05,VALID,1009.71,VALID,0,VALID,94.7957,VALID,0.105969,VALID,23.7701,VALID,102,VALID,1.22344,
2008-08-29, 00:31:05,VALID,1009.72,VALID,0,VALID,94.7042,VALID,0,VALID,23.772,VALID,100,VALID,1.64531,
2008-08-29, 00:32:05,VALID,1009.69,VALID,0,VALID,94.6585,VALID,0,VALID,23.7914,VALID,106,VALID,1.21758,
2008-08-29, 00:33:05,VALID,1009.66,VALID,0,VALID,94.6051,VALID,0,VALID,23.772,VALID,88,VALID,1.21836,
2008-08-29, 00:34:05,VALID,1009.62,VALID,0,VALID,94.5517,VALID,0,VALID,23.7914,VALID,99,VALID,0.829687,
2008-08-29, 00:35:05,VALID,1009.6,VALID,0,VALID,94.5441,VALID,0,VALID,23.8304,VALID,93,VALID,0.66875,
2008-08-29, 00:36:05,VALID,1009.6,VALID,0,VALID,94.4907,VALID,0,VALID,23.8109,VALID,115,VALID,1.09492,
2008-08-29, 00:37:05,VALID,1009.57,VALID,0,VALID,94.4602,VALID,0,VALID,23.8304,VALID,108,VALID,0.557813,
2008-08-29, 00:38:05,VALID,1009.58,VALID,0,VALID,94.4221,VALID,0,VALID,23.8499,VALID,76,VALID,0.641016,
2008-08-29, 00:39:05,VALID,1009.58,VALID,0,VALID,94.3229,VALID,0,VALID,23.8499,VALID,58,VALID,0.659375,
2008-08-29, 00:40:05,VALID,1009.59,VALID,0,VALID,94.2772,VALID,0,VALID,23.8694,VALID,70,VALID,0.696875,
2008-08-29, 00:41:05,VALID,1009.61,VALID,0,VALID,94.2009,VALID,0,VALID,23.8499,VALID,47,VALID,0.814062,
2008-08-29, 00:42:05,VALID,1009.62,VALID,0,VALID,94.1933,VALID,0,VALID,23.8499,VALID,34,VALID,0.699609,
2008-08-29, 00:43:05,VALID,1009.66,VALID,0,VALID,94.2162,VALID,0,VALID,23.8499,VALID,38,VALID,0.326953,
2008-08-29, 00:44:05,VALID,1009.66,VALID,0,VALID,94.2467,VALID,0,VALID,23.8499,VALID,33,VALID,0.530469,
2008-08-29, 00:45:05,VALID,1009.66,VALID,0,VALID,94.2009,VALID,0,VALID,23.8109,VALID,29,VALID,0.383203,
2008-08-29, 00:46:05,VALID,1009.65,VALID,0,VALID,94.2543,VALID,0,VALID,23.8304,VALID,57,VALID,0.180469,
2008-08-29, 00:47:05,VALID,1009.68,VALID,0,VALID,94.2924,VALID,0,VALID,23.8304,VALID,26,VALID,0.510938,
2008-08-29, 00:48:05,VALID,1009.66,VALID,0,VALID,94.3306,VALID,0,VALID,23.8322,VALID,15,VALID,0.669531,
2008-08-29, 00:49:05,VALID,1009.67,VALID,0,VALID,94.3687,VALID,0,VALID,23.8517,VALID,14,VALID,0.551953,
2008-08-29, 00:50:05,VALID,1009.68,VALID,0,VALID,94.4145,VALID,0,VALID,23.8517,VALID,359,VALID,0.226953,
2008-08-29, 00:51:05,VALID,1009.68,VALID,0,VALID,94.445,VALID,0,VALID,23.8304,VALID,342,VALID,0.364062,
2008-08-29, 00:52:05,VALID,1009.68,VALID,0,VALID,94.4831,VALID,0,VALID,23.8304,VALID,340,VALID,0.402734,
2008-08-29, 00:53:05,VALID,1009.71,VALID,0,VALID,94.4678,VALID,0,VALID,23.8109,VALID,6,VALID,0.502734,
2008-08-29, 00:54:05,VALID,1009.68,VALID,0,VALID,94.4831,VALID,0,VALID,23.8304,VALID,7,VALID,0.361328,
2008-08-29, 00:55:05,VALID,1009.62,VALID,0,VALID,94.4907,VALID,0,VALID,23.8109,VALID,336,VALID,0.163672,
2008-08-29, 00:56:05,VALID,1009.61,VALID,0.5,VALID,94.4983,VALID,0,VALID,23.8499,VALID,317,VALID,0.00195313,
2008-08-29, 00:57:05,VALID,1009.56,VALID,0,VALID,94.4907,VALID,0,VALID,23.8304,VALID,78,VALID,0.325781,
2008-08-29, 00:58:05,VALID,1009.51,VALID,0,VALID,94.5288,VALID,0,VALID,23.8322,VALID,8,VALID,0.301562,
2008-08-29, 00:59:04,VALID,1009.46,VALID,0,VALID,94.5288,VALID,0,VALID,23.8499,VALID,329,VALID,0.539063,
2008-08-29, 01:00:04,VALID,1009.42,VALID,0,VALID,94.5593,VALID,0,VALID,23.8304,VALID,329,VALID,0.0117188,
2008-08-29, 01:01:04,VALID,1009.39,VALID,0,VALID,94.5746,VALID,0,VALID,23.8712,VALID,329,VALID,0.138672,
2008-08-29, 01:02:04,VALID,1009.38,VALID,0,VALID,94.6051,VALID,0,VALID,23.8499,VALID,353,VALID,0.303125,
2008-08-29, 01:03:04,VALID,1009.37,VALID,0,VALID,94.6051,VALID,0,VALID,23.8499,VALID,61,VALID,0.470313,
2008-08-29, 01:04:04,VALID,1009.38,VALID,0,VALID,94.6356,VALID,0,VALID,23.8694,VALID,63,VALID,0.450781,
2008-08-29, 01:05:04,VALID,1009.36,VALID,0,VALID,94.6585,VALID,0,VALID,23.8694,VALID,85,VALID,0.659375,
2008-08-29, 01:06:04,VALID,1009.36,VALID,0,VALID,94.6585,VALID,0,VALID,23.8499,VALID,97,VALID,0.750391,
2008-08-29, 01:07:04,VALID,1009.34,VALID,0.5,VALID,94.689,VALID,0,VALID,23.8499,VALID,85,VALID,0.716406,
2008-08-29, 01:08:04,VALID,1009.33,VALID,0,VALID,94.7424,VALID,0,VALID,23.9102,VALID,91,VALID,0.776953,
2008-08-29, 01:09:04,VALID,1009.31,VALID,0,VALID,94.7652,VALID,0,VALID,23.8712,VALID,90,VALID,0.6375,
2008-08-29, 01:10:04,VALID,1009.26,VALID,0,VALID,94.8034,VALID,0,VALID,23.8907,VALID,99,VALID,0.650781,
2008-08-29, 01:11:04,VALID,1009.22,VALID,0,VALID,94.8262,VALID,0,VALID,23.9102,VALID,80,VALID,0.381641,
2008-08-29, 01:12:04,VALID,1009.18,VALID,0,VALID,94.8186,VALID,0,VALID,23.8889,VALID,42,VALID,0.627344,
2008-08-29, 01:13:04,VALID,1009.17,VALID,0,VALID,94.8186,VALID,0,VALID,23.8907,VALID,44,VALID,0.291406,
2008-08-29, 01:14:04,VALID,1009.14,VALID,0,VALID,94.8339,VALID,0,VALID,23.8694,VALID,5,VALID,0.266406,
2008-08-29, 01:15:04,VALID,1009.11,VALID,0,VALID,94.8339,VALID,0,VALID,23.8889,VALID,317,VALID,0.699219,
2008-08-29, 01:16:04,VALID,1009.11,VALID,0,VALID,94.8568,VALID,0,VALID,23.8889,VALID,316,VALID,0.963672,
2008-08-29, 01:17:04,VALID,1009.11,VALID,0,VALID,94.8644,VALID,0,VALID,23.8889,VALID,319,VALID,0.947266,
2008-08-29, 01:18:04,VALID,1009.11,VALID,0,VALID,94.8796,VALID,0,VALID,23.8889,VALID,310,VALID,1.05586,
2008-08-29, 01:19:04,VALID,1009.11,VALID,0,VALID,94.9025,VALID,0,VALID,23.9102,VALID,300,VALID,0.974609,
2008-08-29, 01:20:04,VALID,1009.13,VALID,0,VALID,94.9406,VALID,0,VALID,23.8889,VALID,312,VALID,0.498828,
2008-08-29, 01:21:04,VALID,1009.15,VALID,0,VALID,94.933,VALID,0,VALID,23.9084,VALID,321,VALID,0.923828,
2008-08-29, 01:22:04,VALID,1009.16,VALID,0,VALID,94.9406,VALID,0,VALID,23.9297,VALID,350,VALID,0.761328,
2008-08-29, 01:23:04,VALID,1009.18,VALID,0,VALID,94.9406,VALID,0,VALID,23.8889,VALID,31,VALID,0.728516,
2008-08-29, 01:24:04,VALID,1009.25,VALID,0,VALID,94.9178,VALID,0,VALID,23.9084,VALID,45,VALID,0.693359,
2008-08-29, 01:25:04,VALID,1009.24,VALID,0,VALID,94.9483,VALID,0,VALID,23.8889,VALID,36,VALID,0.558203,
2008-08-29, 01:26:04,VALID,1009.25,VALID,0,VALID,94.9483,VALID,0,VALID,23.9102,VALID,77,VALID,0.0125,
2008-08-29, 01:27:04,VALID,1009.26,VALID,0,VALID,94.9788,VALID,0,VALID,23.9473,VALID,58,VALID,0.44375,
2008-08-29, 01:28:04,VALID,1009.25,VALID,0,VALID,95.0093,VALID,0,VALID,23.9278,VALID,94,VALID,0.384766,
2008-08-29, 01:29:04,VALID,1009.21,VALID,0,VALID,95.0016,VALID,0,VALID,23.9084,VALID,94,VALID,0,
2008-08-29, 01:30:04,VALID,1009.19,VALID,0,VALID,95.0016,VALID,0,VALID,23.9491,VALID,355,VALID,0.398047,
2008-08-29, 01:31:04,VALID,1009.16,VALID,0.5,VALID,95.0398,VALID,0,VALID,23.9278,VALID,355,VALID,0.381641,
2008-08-29, 01:32:04,VALID,1009.11,VALID,0,VALID,95.0398,VALID,0,VALID,23.9473,VALID,358,VALID,0.269922,
2008-08-29, 01:33:04,VALID,1009.11,VALID,0,VALID,95.055,VALID,0,VALID,23.9863,VALID,327,VALID,0.601172,
2008-08-29, 01:34:04,VALID,1009.06,VALID,0,VALID,95.055,VALID,0,VALID,23.9455,VALID,309,VALID,0.928906,
2008-08-29, 01:35:04,VALID,1009.05,VALID,0,VALID,95.0855,VALID,0,VALID,23.9863,VALID,297,VALID,0.418359,
2008-08-29, 01:36:04,VALID,1009.06,VALID,0,VALID,95.0931,VALID,0,VALID,23.9455,VALID,304,VALID,0.4375,
2008-08-29, 01:37:04,VALID,1009.05,VALID,0,VALID,95.0855,VALID,0.105969,VALID,23.965,VALID,310,VALID,0.734766,
2008-08-29, 01:38:04,VALID,1009.05,VALID,0,VALID,95.1236,VALID,0,VALID,23.965,VALID,277,VALID,0.470313,
2008-08-29, 01:39:04,VALID,1009.08,VALID,0,VALID,95.1008,VALID,0.105969,VALID,23.965,VALID,306,VALID,0.508203,
2008-08-29, 01:40:04,VALID,1009.07,VALID,0,VALID,95.1084,VALID,0,VALID,23.9845,VALID,304,VALID,0.0015625,
2008-08-29, 01:41:04,VALID,1009.04,VALID,0.5,VALID,95.0779,VALID,0,VALID,23.9845,VALID,80,VALID,0.686719,
2008-08-29, 01:42:04,VALID,1009.03,VALID,0,VALID,95.0931,VALID,0.105969,VALID,24.0235,VALID,106,VALID,0.779297,
2008-08-29, 01:43:04,VALID,1009.01,VALID,0,VALID,95.0779,VALID,0,VALID,23.965,VALID,88,VALID,0.787109,
2008-08-29, 01:44:04,VALID,1008.98,VALID,0,VALID,95.0779,VALID,0,VALID,24.004,VALID,95,VALID,1.04727,
2008-08-29, 01:45:04,VALID,1008.98,VALID,0,VALID,95.0703,VALID,0.105969,VALID,24.0429,VALID,95,VALID,1.0918,
2008-08-29, 01:46:04,VALID,1008.98,VALID,0,VALID,95.0779,VALID,0,VALID,24.0253,VALID,102,VALID,0.876953,
2008-08-29, 01:47:04,VALID,1008.96,VALID,0,VALID,95.0398,VALID,0,VALID,23.9845,VALID,92,VALID,0.65,
2008-08-29, 01:48:04,VALID,1008.93,VALID,0,VALID,95.0169,VALID,0,VALID,24.0253,VALID,90,VALID,0.358984,
2008-08-29, 01:49:04,VALID,1008.91,VALID,0,VALID,95.0321,VALID,0,VALID,24.0253,VALID,90,VALID,0,
2008-08-29, 01:50:04,VALID,1008.93,VALID,0,VALID,95.0321,VALID,0,VALID,24.0448,VALID,90,VALID,0.00195313,
2008-08-29, 01:51:04,VALID,1008.87,VALID,0,VALID,95.0245,VALID,0,VALID,24.0448,VALID,302,VALID,0.357031,
2008-08-29, 01:52:04,VALID,1008.85,VALID,0,VALID,95.0016,VALID,0,VALID,24.0253,VALID,303,VALID,0.500391,
2008-08-29, 01:53:04,VALID,1008.83,VALID,0,VALID,94.9864,VALID,0,VALID,24.0253,VALID,308,VALID,0.575781,
2008-08-29, 01:54:04,VALID,1008.8,VALID,0,VALID,94.9483,VALID,0,VALID,24.0058,VALID,318,VALID,0.865625,
2008-08-29, 01:55:04,VALID,1008.8,VALID,0,VALID,94.9635,VALID,0,VALID,24.0253,VALID,306,VALID,0.868359,
2008-08-29, 01:56:04,VALID,1008.78,VALID,0,VALID,94.9406,VALID,0,VALID,24.0058,VALID,316,VALID,0.914453,
2008-08-29, 01:57:04,VALID,1008.78,VALID,0,VALID,94.9864,VALID,0,VALID,24.0253,VALID,317,VALID,1.01484,
2008-08-29, 01:58:04,VALID,1008.79,VALID,0,VALID,94.9864,VALID,0,VALID,24.0253,VALID,324,VALID,0.882422,
2008-08-29, 01:59:04,VALID,1008.76,VALID,0,VALID,94.9788,VALID,0,VALID,24.0448,VALID,303,VALID,1,
2008-08-29, 02:00:04,VALID,1008.77,VALID,0,VALID,94.994,VALID,0,VALID,24.0448,VALID,326,VALID,0.632813,
2008-08-29, 02:01:04,VALID,1008.75,VALID,0,VALID,94.994,VALID,0,VALID,24.0253,VALID,320,VALID,0.890625,
2008-08-29, 02:02:04,VALID,1008.72,VALID,0,VALID,94.9864,VALID,0,VALID,24.0058,VALID,348,VALID,0.871875,
2008-08-29, 02:03:04,VALID,1008.71,VALID,0,VALID,95.0016,VALID,0,VALID,24.0466,VALID,305,VALID,0.726172,
2008-08-29, 02:04:04,VALID,1008.68,VALID,0,VALID,94.9864,VALID,0,VALID,24.0058,VALID,315,VALID,1.27734,
2008-08-29, 02:05:04,VALID,1008.63,VALID,0,VALID,94.994,VALID,0,VALID,24.0058,VALID,303,VALID,1.13711,
2008-08-29, 02:06:04,VALID,1008.6,VALID,0,VALID,94.994,VALID,0,VALID,24.0058,VALID,332,VALID,0.680859,
2008-08-29, 02:07:04,VALID,1008.59,VALID,0,VALID,94.9864,VALID,0,VALID,23.9845,VALID,296,VALID,0.644531,
2008-08-29, 02:08:04,VALID,1008.55,VALID,0,VALID,94.9864,VALID,0,VALID,24.0271,VALID,279,VALID,0.854688,
2008-08-29, 02:09:04,VALID,1008.57,VALID,0,VALID,94.9483,VALID,0,VALID,23.9863,VALID,299,VALID,1.10078,
2008-08-29, 02:10:04,VALID,1008.54,VALID,0,VALID,94.9559,VALID,0,VALID,23.9863,VALID,309,VALID,0.778516,
2008-08-29, 02:11:04,VALID,1008.51,VALID,0,VALID,94.9406,VALID,0,VALID,24.0448,VALID,290,VALID,0.935156,
2008-08-29, 02:12:04,VALID,1008.54,VALID,0,VALID,94.9178,VALID,0,VALID,23.9863,VALID,297,VALID,0.387109,
2008-08-29, 02:13:04,VALID,1008.53,VALID,0,VALID,94.9101,VALID,0,VALID,24.0058,VALID,300,VALID,0.96875,
2008-08-29, 02:14:04,VALID,1008.56,VALID,0,VALID,94.9254,VALID,0,VALID,23.9668,VALID,301,VALID,0.00585938,
2008-08-29, 02:15:04,VALID,1008.59,VALID,0,VALID,94.9101,VALID,0,VALID,24.0058,VALID,357,VALID,0.671094,
2008-08-29, 02:16:04,VALID,1008.62,VALID,0,VALID,94.9025,VALID,0.105969,VALID,24.004,VALID,49,VALID,0.727344,
2008-08-29, 02:17:04,VALID,1008.65,VALID,0,VALID,94.8949,VALID,0.105969,VALID,23.9845,VALID,121,VALID,0.963281,
2008-08-29, 02:18:04,VALID,1008.69,VALID,0,VALID,94.9025,VALID,0.105969,VALID,24.0235,VALID,116,VALID,1.21719,
2008-08-29, 02:19:04,VALID,1008.72,VALID,0,VALID,94.9178,VALID,0.105969,VALID,24.0429,VALID,116,VALID,1.46523,
2008-08-29, 02:20:04,VALID,1008.75,VALID,0,VALID,94.8949,VALID,0.105969,VALID,24.0429,VALID,120,VALID,1.39648,
2008-08-29, 02:21:04,VALID,1008.78,VALID,0,VALID,94.8491,VALID,0.105969,VALID,24.0429,VALID,113,VALID,1.77852,
2008-08-29, 02:22:04,VALID,1008.78,VALID,0,VALID,94.8186,VALID,0.105969,VALID,24.0235,VALID,103,VALID,2.04609,
2008-08-29, 02:23:04,VALID,1008.81,VALID,0,VALID,94.7652,VALID,0.105969,VALID,24.0253,VALID,101,VALID,1.97578,
2008-08-29, 02:24:04,VALID,1008.83,VALID,0,VALID,94.7424,VALID,0,VALID,24.0429,VALID,90,VALID,1.23242,
2008-08-29, 02:25:04,VALID,1008.86,VALID,0,VALID,94.7119,VALID,0.105969,VALID,24.0429,VALID,97,VALID,1.17227,
2008-08-29, 02:26:04,VALID,1008.85,VALID,0,VALID,94.6966,VALID,0.105969,VALID,24.0429,VALID,83,VALID,0.776953,
2008-08-29, 02:27:04,VALID,1008.84,VALID,0,VALID,94.6661,VALID,0.105969,VALID,24.0429,VALID,77,VALID,0.841406,
2008-08-29, 02:28:04,VALID,1008.84,VALID,0,VALID,94.6356,VALID,0.105969,VALID,24.0235,VALID,97,VALID,0.936328,
2008-08-29, 02:29:04,VALID,1008.85,VALID,0,VALID,94.6051,VALID,0.105969,VALID,24.004,VALID,92,VALID,1.07031,
2008-08-29, 02:30:04,VALID,1008.86,VALID,0,VALID,94.6356,VALID,0.105969,VALID,24.0235,VALID,115,VALID,0.783984,
2008-08-29, 02:31:04,VALID,1008.84,VALID,0,VALID,94.628,VALID,0,VALID,24.0448,VALID,117,VALID,1.23438,
2008-08-29, 02:32:04,VALID,1008.85,VALID,0,VALID,94.628,VALID,0.105969,VALID,24.0624,VALID,107,VALID,1.15781,
2008-08-29, 02:33:04,VALID,1008.86,VALID,0,VALID,94.6508,VALID,0.105969,VALID,24.0429,VALID,101,VALID,0.839844,
2008-08-29, 02:34:04,VALID,1008.87,VALID,0,VALID,94.628,VALID,0.105969,VALID,24.0235,VALID,100,VALID,1.06016,
2008-08-29, 02:35:04,VALID,1008.87,VALID,0,VALID,94.5898,VALID,0.105969,VALID,23.9845,VALID,101,VALID,1.63359,
2008-08-29, 02:36:04,VALID,1008.9,VALID,0,VALID,94.5975,VALID,0,VALID,24.004,VALID,116,VALID,1.34687,
2008-08-29, 02:37:04,VALID,1008.93,VALID,0,VALID,94.5898,VALID,0.105969,VALID,24.0235,VALID,110,VALID,1.29883,
2008-08-29, 02:38:04,VALID,1008.92,VALID,0,VALID,94.5898,VALID,0.105969,VALID,24.004,VALID,108,VALID,1.26758,
2008-08-29, 02:39:04,VALID,1008.94,VALID,0,VALID,94.6127,VALID,0,VALID,23.9845,VALID,105,VALID,1.19687,
2008-08-29, 02:40:04,VALID,1008.94,VALID,0,VALID,94.6051,VALID,0.105969,VALID,24.0429,VALID,114,VALID,0.991406,
2008-08-29, 02:41:04,VALID,1008.95,VALID,0,VALID,94.6585,VALID,0,VALID,24.004,VALID,88,VALID,0.927344,
2008-08-29, 02:42:04,VALID,1008.93,VALID,0,VALID,94.6508,VALID,0,VALID,24.0058,VALID,83,VALID,1.16172,
2008-08-29, 02:43:04,VALID,1008.93,VALID,0,VALID,94.6432,VALID,0.105969,VALID,24.004,VALID,90,VALID,1.05508,
2008-08-29, 02:44:04,VALID,1008.93,VALID,0,VALID,94.628,VALID,0.105969,VALID,23.965,VALID,94,VALID,1.16055,
2008-08-29, 02:45:04,VALID,1008.93,VALID,0,VALID,94.628,VALID,0,VALID,23.9845,VALID,92,VALID,1.13437,
2008-08-29, 02:46:04,VALID,1008.93,VALID,0,VALID,94.6356,VALID,0,VALID,23.9863,VALID,81,VALID,1.07187,
2008-08-29, 02:47:04,VALID,1008.91,VALID,0,VALID,94.6432,VALID,0,VALID,23.9668,VALID,89,VALID,1.08398,
2008-08-29, 02:48:04,VALID,1008.91,VALID,0,VALID,94.6585,VALID,0,VALID,23.9668,VALID,86,VALID,0.707812,
2008-08-29, 02:49:04,VALID,1008.94,VALID,0,VALID,94.6661,VALID,0,VALID,23.9881,VALID,96,VALID,0.907812,
2008-08-29, 02:50:04,VALID,1008.91,VALID,0,VALID,94.6508,VALID,0,VALID,23.9473,VALID,79,VALID,0.815234,
2008-08-29, 02:51:04,VALID,1008.91,VALID,0,VALID,94.6585,VALID,0,VALID,23.9686,VALID,64,VALID,0.861719,
2008-08-29, 02:52:04,VALID,1008.89,VALID,0,VALID,94.7195,VALID,0,VALID,23.9668,VALID,73,VALID,0.609766,
2008-08-29, 02:53:04,VALID,1008.87,VALID,0,VALID,94.7042,VALID,0,VALID,23.9668,VALID,93,VALID,0.683984,
2008-08-29, 02:54:04,VALID,1008.87,VALID,0,VALID,94.7195,VALID,0,VALID,23.9863,VALID,66,VALID,0.841797,
2008-08-29, 02:55:04,VALID,1008.87,VALID,0,VALID,94.7042,VALID,0,VALID,23.9881,VALID,80,VALID,0.667188,
2008-08-29, 02:56:04,VALID,1008.86,VALID,0,VALID,94.7271,VALID,0,VALID,23.9668,VALID,78,VALID,0.575,
2008-08-29, 02:57:04,VALID,1008.84,VALID,0,VALID,94.7119,VALID,0,VALID,23.9668,VALID,64,VALID,0.625391,
2008-08-29, 02:58:04,VALID,1008.84,VALID,0,VALID,94.7271,VALID,0,VALID,24.0076,VALID,104,VALID,0.717188,
2008-08-29, 02:59:04,VALID,1008.81,VALID,0,VALID,94.7271,VALID,0,VALID,23.9863,VALID,101,VALID,0.729688,
2008-08-29, 03:00:04,VALID,1008.83,VALID,0,VALID,94.7119,VALID,0,VALID,24.0076,VALID,105,VALID,0.916797,
2008-08-29, 03:01:04,VALID,1008.82,VALID,0,VALID,94.7347,VALID,0.105969,VALID,23.9845,VALID,92,VALID,0.709375,
2008-08-29, 03:02:04,VALID,1008.86,VALID,0,VALID,94.6661,VALID,0.105969,VALID,24.004,VALID,104,VALID,1.20078,
2008-08-29, 03:03:04,VALID,1008.84,VALID,0,VALID,94.6737,VALID,0.105969,VALID,24.0235,VALID,83,VALID,0.747656,
2008-08-29, 03:04:04,VALID,1008.88,VALID,0,VALID,94.6661,VALID,0.105969,VALID,24.004,VALID,74,VALID,1.08516,
2008-08-29, 03:05:04,VALID,1008.86,VALID,0,VALID,94.6585,VALID,0,VALID,24.0448,VALID,93,VALID,0.780859,
2008-08-29, 03:06:04,VALID,1008.87,VALID,0,VALID,94.689,VALID,0.105969,VALID,24.0429,VALID,78,VALID,0.670313,
2008-08-29, 03:07:04,VALID,1008.86,VALID,0,VALID,94.6814,VALID,0.105969,VALID,24.0235,VALID,83,VALID,0.464844,
2008-08-29, 03:08:04,VALID,1008.82,VALID,0,VALID,94.7042,VALID,0,VALID,24.0235,VALID,77,VALID,0.688672,
2008-08-29, 03:09:04,VALID,1008.85,VALID,0,VALID,94.689,VALID,0.105969,VALID,24.0429,VALID,67,VALID,0.357422,
2008-08-29, 03:10:04,VALID,1008.83,VALID,0,VALID,94.6585,VALID,0.105969,VALID,24.0253,VALID,78,VALID,0.421094,
2008-08-29, 03:11:04,VALID,1008.78,VALID,0,VALID,94.6432,VALID,0.105969,VALID,24.0058,VALID,80,VALID,0.573047,
2008-08-29, 03:12:04,VALID,1008.8,VALID,0,VALID,94.6127,VALID,0,VALID,24.0058,VALID,53,VALID,0.825,
2008-08-29, 03:13:04,VALID,1008.82,VALID,0,VALID,94.6356,VALID,0,VALID,23.965,VALID,52,VALID,0.810938,
2008-08-29, 03:14:04,VALID,1008.82,VALID,0,VALID,94.628,VALID,0,VALID,23.965,VALID,81,VALID,0.855078,
2008-08-29, 03:15:04,VALID,1008.81,VALID,0,VALID,94.6508,VALID,0.105969,VALID,23.9455,VALID,78,VALID,0.682813,
2008-08-29, 03:16:04,VALID,1008.85,VALID,0,VALID,94.6814,VALID,0,VALID,23.9455,VALID,64,VALID,0.644531,
2008-08-29, 03:17:04,VALID,1008.85,VALID,0,VALID,94.7042,VALID,0,VALID,23.9668,VALID,72,VALID,0.591797,
2008-08-29, 03:18:04,VALID,1008.86,VALID,0,VALID,94.7347,VALID,0,VALID,23.9473,VALID,44,VALID,0.667969,
2008-08-29, 03:19:04,VALID,1008.87,VALID,0,VALID,94.7652,VALID,0,VALID,23.9473,VALID,65,VALID,1.13711,
2008-08-29, 03:20:04,VALID,1008.85,VALID,0,VALID,94.7652,VALID,0,VALID,23.9455,VALID,36,VALID,0.619922,
2008-08-29, 03:21:04,VALID,1008.83,VALID,0,VALID,94.8262,VALID,0,VALID,23.9473,VALID,56,VALID,0.477344,
2008-08-29, 03:22:04,VALID,1008.84,VALID,0,VALID,94.8339,VALID,0,VALID,23.9473,VALID,66,VALID,0.995313,
2008-08-29, 03:23:04,VALID,1008.83,VALID,0,VALID,94.8034,VALID,0,VALID,23.9278,VALID,78,VALID,1.37773,
2008-08-29, 03:24:04,VALID,1008.79,VALID,0,VALID,94.8186,VALID,0,VALID,23.9668,VALID,94,VALID,1.6082,
2008-08-29, 03:25:04,VALID,1008.78,VALID,0,VALID,94.8034,VALID,0.105969,VALID,23.9065,VALID,85,VALID,1.28633,
2008-08-29, 03:26:04,VALID,1008.77,VALID,0,VALID,94.8186,VALID,0,VALID,23.9473,VALID,90,VALID,1.30234,
2008-08-29, 03:27:04,VALID,1008.75,VALID,0,VALID,94.8796,VALID,0.105969,VALID,23.9455,VALID,106,VALID,1.06953,
2008-08-29, 03:28:04,VALID,1008.73,VALID,0,VALID,94.8644,VALID,0,VALID,23.9455,VALID,114,VALID,1.12031,
2008-08-29, 03:29:04,VALID,1008.71,VALID,0,VALID,94.8949,VALID,0,VALID,23.9863,VALID,121,VALID,1.2918,
2008-08-29, 03:30:04,VALID,1008.7,VALID,0,VALID,94.8491,VALID,0,VALID,23.9278,VALID,110,VALID,1.53711,
2008-08-29, 03:31:04,VALID,1008.71,VALID,0,VALID,94.8186,VALID,0,VALID,23.9278,VALID,107,VALID,1.20781,
2008-08-29, 03:32:04,VALID,1008.7,VALID,0,VALID,94.811,VALID,0,VALID,23.926,VALID,127,VALID,1.53047,
2008-08-29, 03:33:04,VALID,1008.7,VALID,0,VALID,94.7957,VALID,0,VALID,23.9278,VALID,113,VALID,1.10117,
2008-08-29, 03:34:04,VALID,1008.71,VALID,0,VALID,94.8415,VALID,0.105969,VALID,23.9668,VALID,133,VALID,1.08164,
2008-08-29, 03:35:04,VALID,1008.67,VALID,0,VALID,94.8491,VALID,0.105969,VALID,23.9455,VALID,139,VALID,1.43516,
2008-08-29, 03:36:04,VALID,1008.63,VALID,0,VALID,94.8034,VALID,0.105969,VALID,23.9668,VALID,122,VALID,1.25898,
2008-08-29, 03:37:04,VALID,1008.6,VALID,0,VALID,94.8186,VALID,0.105969,VALID,23.9473,VALID,98,VALID,1.5293,
2008-08-29, 03:38:04,VALID,1008.59,VALID,0,VALID,94.8034,VALID,0,VALID,23.926,VALID,103,VALID,1.67461,
2008-08-29, 03:39:04,VALID,1008.59,VALID,0,VALID,94.7957,VALID,0,VALID,23.9065,VALID,100,VALID,1.80273,
2008-08-29, 03:40:04,VALID,1008.56,VALID,0,VALID,94.7652,VALID,0.105969,VALID,23.9278,VALID,102,VALID,1.76484,
2008-08-29, 03:41:04,VALID,1008.58,VALID,0,VALID,94.7881,VALID,0.105969,VALID,23.9084,VALID,87,VALID,2.2293,
2008-08-29, 03:42:04,VALID,1008.54,VALID,0,VALID,94.7424,VALID,0,VALID,23.9084,VALID,108,VALID,1.53555,